THORAD DELTA 1 DEB, 42608

Orbit data source: Space-Track

THORAD DELTA 1 DEB, 42608 is space debris in SSO originally from a launch on Fri, 15 Nov 1974 UTC launched from the Air Force Western Test Range (AFWTR). Debris objects in space refer to the collection of defunct objects orbiting the Earth. Examples of debris include non-operational satellites, rocket bodies, and fragments generated from explosions, collisions, or faulty payload assembly.

Loading next visibility...
Identifier
42608, 1974-089FZ
Orbit
SSO
Country
Flag of USUS
Related business
Manufacturer
Unknown
Mission
Spacecraft
Bus & Motor
Unknown
Mass
Unknown
Launch date (UTC)
1974-11-15 (52 years ago)
Launch vehicle
Unknown
Launch site
Air Force Western Test Range (AFWTR)
Object type
Payload
Rocket body
Debris
Shape & HBR
Unknown shape, 0.1 m
Radar Cross Section
Medium (>0.1 m² and <1 m²)

Expand to show TLE details & history
Last TLE update: 1 week ago

TLE from 1 week ago
0 THORAD DELTA 1 DEB
1 42608U 74089FZ  26150.18176608 -.00000027  00000-0  16686-3 0  9999
2 42608 102.5400 138.5269 0072935 247.7972 111.5333 12.28113496561211
Epoch: 2026-05-30T04:21Z
TLE epoch observation values (Epoch: 2026-05-30T04:21:44.589Z)
Latitude
0.00003°
Longitude
-174.61037°
Altitude
1,581.519 km
Speed
7.068 km/s
True Right ascension
09h 14m 06s
True Declination
0° 00' 00"
Sunlit
Object was in daylight at epoch
Visualization orbit readout
Latitude
Unknown
Longitude
Unknown
Altitude
Unknown
Speed
Unknown
Apparent Right ascension
Unknown
Apparent Declination
Unknown
Sunlit
N/A
Visualization observer readout
Local Sidereal Time
16:24:44
Azimuth
Unknown
Elevation
Unknown
Doppler factor
Unknown
Orbital elements
Apogee altitude
1,612.88 km
Perigee altitude
1,497.16 km
Semi-major axis
7,933.157 km
Eccentricity
0.00729
Inclination
102.54°
RAAN
138.5269°
Arg. of periapsis
247.7972°
True anomaly
112.30812°
Mean anomaly
111.5333°
Eccentric anomaly
111.92097°
Mean motion
3.07167 °/min
Orbital period
117.2 mins
BSTAR
0.00016686

Documentation

Showing up to 5 results
|